Simultaneous Nadir Overpasses (SNOs) Predictions

Prediction of SNOs between NOAA-19 and TERRA Satellite Orbit:

Table of predicted SNOs for the next 14.0 days since TLE Epoch: 12/2/2023
Index Date (NOAA-19) Time (NOAA-19) Lat,Lon (NOAA-19) SZA (NOAA-19 ) Date (TERRA) Time (TERRA) Lat,Lon (TERRA) SZA (TERRA ) Distance(km) Time Diff (sec)
1 12/02/2023 05:15:37 -80.61, -51.10 76.30 12/02/2023 05:16:48 -80.62, -50.99 76.25 2.38 71
2 12/02/2023 06:06:37 80.65, 117.00 103.82 12/02/2023 06:06:09 80.64, 116.85 103.79 2.87 28
3 12/04/2023 09:05:56 80.61, 71.33 104.00 12/04/2023 09:06:38 80.60, 71.27 104.00 1.50 42
4 12/04/2023 09:56:50 -80.65,-120.48 75.89 12/04/2023 09:55:58 -80.66,-120.45 75.90 1.08 52
5 12/06/2023 12:56:09 -80.61,-166.06 75.73 12/06/2023 12:56:26 -80.62,-165.94 75.71 2.38 17
6 12/08/2023 16:46:26 80.61, -43.50 104.51 12/08/2023 16:46:14 80.62, -43.50 104.50 0.05 12
7 12/10/2023 19:45:44 80.57, -89.11 104.59 12/10/2023 19:46:41 80.57, -89.12 104.60 0.86 57
8 12/10/2023 20:36:40 -80.61, 78.96 75.31 12/10/2023 20:36:01 -80.62, 79.13 75.30 3.29 39
9 12/12/2023 23:35:58 -80.58, 33.46 75.25 12/12/2023 23:36:27 -80.59, 33.59 75.22 2.49 29
10 12/13/2023 00:26:55 80.62,-158.37 104.87 12/13/2023 00:25:47 80.63,-158.24 104.87 2.91 68



Historial Predications of SNOs between NOAA-19 and TERRA
